Glasgow, United Kingdom

3:17 PM BST on September 20, 2017 (GMT +0100)
Glasgow

Weather History for EGPF - March, 2014

Change the Weather History Date:

Saturday, March 1, 2014

  Actual Average Record
Temperature  
Mean Temperature 40 °F -  
Max Temperature 44 °F 47 °F 53 °F (2012)
Min Temperature 35 °F 34 °F 15 °F (2001)
Degree Days  
Heating Degree Days 26    
Moisture  
Dew Point 36 °F    
Average Humidity 85    
Maximum Humidity 100    
Minimum Humidity 66    
Precipitation  
Precipitation 0.00 in - - ()
Sea Level Pressure  
Sea Level Pressure 29.45 in    
Wind  
Wind Speed 6 mph ()    
Max Wind Speed 16 mph    
Max Gust Speed 30 mph    
Visibility 6.1 miles    
Events Rain    
Averages and records for this station are not official NWS values.
T = Trace of Precipitation, MM = Missing Value Source: Averaged Metar Reports

Daily Weather History Graph

Daily Weather History Graph

Search for Another Location

Airport or City:

Trip Planner

Search our weather history database for the weather conditions in past years. The results will help you decide how hot, cold, wet, or windy it might be!

Date:

Astronomy

Mar. 01, 2014 Rise Set
Actual Time 7:09 AM GMT 5:51 PM GMT
Civil Twilight 6:32 AM GMT 6:29 PM GMT
Nautical Twilight 5:49 AM GMT 7:12 PM GMT
Astronomical Twilight 5:06 AM GMT 7:55 PM GMT
Moon 6:47 AM GMT (3/1) 6:34 PM GMT (3/1)
Length of Visible Light 11h 57m
Length of Day
10h 42m
New Moon, 0% of the Moon is Illuminated
Mar 1
New Moon
Mar 8
First Quarter
Mar 16
Full
Mar 24
Last Quarter
Mar 30
New

Hourly Weather History & Observations

Time (GMT) Temp. Windchill Dew Point Humidity Pressure Visibility Wind Dir Wind Speed Gust Speed Precip Events Conditions
12:20 AM 39.2 °F 34.2 °F 35.6 °F 87% 29.56 in 6.2 mi SSW 6.9 mph - N/A   Partly Cloudy
12:50 AM 39.2 °F - 35.6 °F 87% 29.56 in 6.2 mi Calm Calm - N/A   Mostly Cloudy
1:20 AM 37.4 °F 32.8 °F 35.6 °F 93% 29.56 in 6.2 mi SW 5.8 mph - N/A   Mostly Cloudy
1:50 AM 37.4 °F 33.8 °F 35.6 °F 93% 29.56 in 6.2 mi SSW 4.6 mph - N/A   Scattered Clouds
2:20 AM 37.4 °F 34.9 °F 35.6 °F 93% 29.56 in 6.2 mi SSW 3.5 mph - N/A   Mostly Cloudy
2:50 AM 37.4 °F 33.8 °F 35.6 °F 93% 29.53 in 6.2 mi SW 4.6 mph - N/A   Mostly Cloudy
3:20 AM 35.6 °F - 33.8 °F 93% 29.53 in - Variable 2.3 mph - N/A   Clear
3:50 AM 37.4 °F - 35.6 °F 93% 29.53 in 6.2 mi ESE 2.3 mph - N/A   Scattered Clouds
4:20 AM 37.4 °F - 35.6 °F 93% 29.53 in 6.2 mi Calm Calm - N/A   Mostly Cloudy
4:50 AM 35.6 °F 32.8 °F 33.8 °F 93% 29.53 in 6.2 mi East 3.5 mph - N/A   Mostly Cloudy
5:20 AM 35.6 °F 31.7 °F 33.8 °F 93% 29.53 in 6.2 mi SE 4.6 mph - N/A   Mostly Cloudy
5:50 AM 37.4 °F 34.9 °F 35.6 °F 93% 29.53 in 6.2 mi SSE 3.5 mph - N/A   Mostly Cloudy
6:20 AM 35.6 °F 31.7 °F 35.6 °F 100% 29.53 in 6.2 mi SSE 4.6 mph - N/A   Scattered Clouds
6:50 AM 35.6 °F 32.8 °F 33.8 °F 93% 29.53 in 6.2 mi SSW 3.5 mph - N/A   Mostly Cloudy
7:20 AM 37.4 °F - 35.6 °F 93% 29.53 in 6.2 mi Calm Calm - N/A   Mostly Cloudy
7:50 AM 37.4 °F 33.8 °F 35.6 °F 93% 29.53 in 6.2 mi WSW 4.6 mph - N/A   Mostly Cloudy
8:20 AM 39.2 °F 33.6 °F 37.4 °F 93% 29.53 in 6.2 mi SSW 8.1 mph - N/A   Mostly Cloudy
8:50 AM 39.2 °F 34.2 °F 37.4 °F 93% 29.53 in 6.2 mi South 6.9 mph - N/A Rain Light Rain
9:20 AM 41.0 °F 35.2 °F 37.4 °F 87% 29.53 in 6.2 mi South 9.2 mph - N/A   Mostly Cloudy
9:50 AM 41.0 °F 34.7 °F 37.4 °F 87% 29.53 in 6.2 mi South 10.4 mph - N/A   Scattered Clouds
10:20 AM 41.0 °F 34.3 °F 37.4 °F 87% 29.53 in 6.2 mi South 11.5 mph - N/A   Scattered Clouds
10:50 AM 42.8 °F 37.0 °F 37.4 °F 81% 29.50 in 6.2 mi SSW 10.4 mph - N/A   Scattered Clouds
11:20 AM 41.0 °F 35.2 °F 35.6 °F 81% 29.50 in 6.2 mi SSW 9.2 mph - N/A   Scattered Clouds
11:50 AM 42.8 °F 37.5 °F 37.4 °F 81% 29.50 in 6.2 mi SSW 9.2 mph - N/A   Mostly Cloudy
12:20 PM 44.6 °F 39.7 °F 37.4 °F 76% 29.50 in 6.2 mi SW 9.2 mph - N/A   Mostly Cloudy
12:50 PM 44.6 °F 39.2 °F 35.6 °F 71% 29.50 in 6.2 mi SW 10.4 mph - N/A   Mostly Cloudy
1:20 PM 44.6 °F 38.8 °F 35.6 °F 71% 29.47 in 6.2 mi SSW 11.5 mph - N/A   Mostly Cloudy
1:50 PM 44.6 °F 39.2 °F 35.6 °F 71% 29.47 in 6.2 mi South 10.4 mph - N/A   Mostly Cloudy
2:20 PM 44.6 °F 38.8 °F 33.8 °F 66% 29.47 in 6.2 mi SW 11.5 mph - N/A   Scattered Clouds
2:50 PM 44.6 °F 39.7 °F 35.6 °F 71% 29.47 in 6.2 mi SSW 9.2 mph - N/A   Scattered Clouds
3:20 PM 44.6 °F 40.2 °F 35.6 °F 71% 29.44 in 6.2 mi SSW 8.1 mph - N/A   Mostly Cloudy
3:50 PM 44.6 °F 40.7 °F 37.4 °F 76% 29.44 in 6.2 mi SSW 6.9 mph - N/A   Mostly Cloudy
4:20 PM 44.6 °F 39.7 °F 35.6 °F 71% 29.42 in 6.2 mi South 9.2 mph - N/A Rain Light Rain
4:50 PM 42.8 °F 37.0 °F 37.4 °F 81% 29.42 in 6.2 mi SSW 10.4 mph - N/A   Mostly Cloudy
5:20 PM 42.8 °F 36.2 °F 35.6 °F 76% 29.42 in 6.2 mi South 12.7 mph - N/A   Mostly Cloudy
5:50 PM 42.8 °F 37.5 °F 35.6 °F 76% 29.39 in 6.2 mi South 9.2 mph - N/A   Scattered Clouds
6:20 PM 42.8 °F 38.0 °F 35.6 °F 76% 29.39 in 6.2 mi SSE 8.1 mph - N/A   Partly Cloudy
6:50 PM 42.8 °F 38.0 °F 35.6 °F 76% 29.36 in 6.2 mi SSE 8.1 mph - N/A   Mostly Cloudy
7:20 PM 41.0 °F 36.4 °F 35.6 °F 81% 29.36 in 6.2 mi SSE 6.9 mph - N/A Rain Light Rain
7:50 PM 42.8 °F 37.5 °F 35.6 °F 76% 29.33 in 6.2 mi SE 9.2 mph - N/A Rain Light Rain
8:20 PM 41.0 °F 35.2 °F 37.4 °F 87% 29.33 in 5.0 mi SSE 9.2 mph - N/A Rain Light Rain
8:50 PM 41.0 °F 33.5 °F 37.4 °F 87% 29.30 in 5.6 mi SSE 13.8 mph - N/A Rain Light Rain
9:20 PM 41.0 °F 34.7 °F 37.4 °F 87% 29.30 in 5.0 mi SSE 10.4 mph - N/A Rain Light Rain
9:50 PM 41.0 °F 33.5 °F 37.4 °F 87% 29.27 in 5.6 mi SSE 13.8 mph - N/A Rain Light Rain
10:20 PM 39.2 °F 32.0 °F 37.4 °F 93% 29.21 in 4.3 mi SE 11.5 mph - N/A Rain Light Rain
10:50 PM 41.0 °F 32.8 °F 37.4 °F 87% 29.21 in 6.2 mi WSW 16.1 mph 29.9 mph N/A Rain Light Rain
11:20 PM 41.0 °F 35.8 °F 37.4 °F 87% 29.24 in 6.2 mi West 8.1 mph - N/A Rain Light Rain
11:50 PM 39.2 °F 32.5 °F 35.6 °F 87% 29.21 in 6.2 mi West 10.4 mph - N/A   Partly Cloudy